Regional Weather Roundup
Issued by NWS

Home | Current Version | Previous Version | Graphics & Text | Print | Product List | Glossary Off
Versions: 1 2 3 4 5 6 7 8 9 10 11 12 13 14 15 16 17 18 19 20 21 22 23 24 25 26 27 28 29 30 31 32 33 34 35 36 37 38 39 40 41 42 43 44 45 46 47 48 49 50

000
ASUS45 KPSR 241010
RWRAZ

ARIZONA HOURLY REGIONAL WEATHER ROUNDUP
NATIONAL WEATHER SERVICE PHOENIX AZ
300 AM MST FRI FEB 24 2017

NOTE: FAIR INDICATES FEW OR NO CLOUDS BELOW 12,000 FEET WITH NO
SIGNIFICANT WEATHER AND/OR OBSTRUCTIONS TO VISIBILITY.

AZZ001>003-036-241100-
NORTHWEST ARIZONA

CITY           SKY/WX    TMP DP  RH WIND       PRES   REMARKS
BULLHEAD CITY  CLEAR     45  21  39 CALM      30.05R
KINGMAN        CLEAR     31   3  30 N3        30.01R
$$

AZZ004>008-015-016-018-241100-
NORTH CENTRAL ARIZONA

CITY           SKY/WX    TMP DP  RH WIND       PRES   REMARKS
GRAND CANYON   CLEAR     16  11  80 SW3       29.93R
WILLIAMS       CLEAR     18   7  62 CALM      29.93F
PRESCOTT       CLEAR     26  14  60 CALM      29.97S
FLAGSTAFF      CLEAR     20   5  52 W7        29.91S WCI  11
PAYSON         CLEAR     30  19  64 CALM      29.99S
PAGE           CLEAR     33   8  35 CALM      29.90F
$$

AZZ009>014-017-241100-
NORTHEAST ARIZONA

CITY           SKY/WX    TMP DP  RH WIND       PRES   REMARKS
WINSLOW        CLEAR     23  13  65 SW3       29.96R
SAINT JOHNS    MOCLDY    31  16  54 W14       29.91R WCI  21
WINDOW ROCK    PTCLDY    26   6  42 W10       29.87R WCI  16
SHOW LOW       LGT RAIN  25  14  63 S6        29.95S WCI  18
$$

AZZ023-241100-
GREATER PHOENIX AREA

CITY           SKY/WX    TMP DP  RH WIND       PRES   REMARKS
PHOENIX        CLEAR     46  33  60 SW3       30.00S
BUCKEYE        CLEAR     37  37 100 CALM      30.02S
LUKE AFB       CLEAR     43  31  64 CALM      30.00S
DEER VALLEY    CLEAR     42  32  67 NE3       29.99F
SCOTTSDALE     CLEAR     44  32  62 CALM      30.01S
MESA-GATEWAY   CLEAR     37  32  81 E5        30.02S WCI  34
$$

AZZ027-028-241100-
SOUTHWEST MARICOPA COUNTY AND PINAL COUNTY

CITY           SKY/WX    TMP DP  RH WIND       PRES   REMARKS
CASA GRANDE    NOT AVBL
GILA BEND      FAIR     N/A N/A N/A SE8         N/A
$$

AZZ503-504-507>509-241100-
SOUTHEAST ARIZONA

CITY           SKY/WX    TMP DP  RH WIND       PRES   REMARKS
TUCSON         CLEAR     42  18  37 S3        30.03F
DAVIS-MONTHAN  CLEAR     37  19  49 S6        30.02S WCI  32
NOGALES        CLEAR     33  22  63 E3        30.01S
SIERRA VISTA   CLEAR     36  15  42 NW16      29.99F WCI  26
DOUGLAS        CLEAR     31  17  56 N9        29.99F WCI  23
SAFFORD        CLEAR     40  16  37 W6        29.96S
$$

AZZ020-021-025-026-031-241100-
SOUTHWEST ARIZONA

CITY           SKY/WX    TMP DP  RH WIND       PRES   REMARKS
YUMA           CLEAR     52  31  44 NW8       30.04S
$$

CAZ031-033-041-043-047-048-061-241100-
SOUTHERN CALIFORNIA

CITY           SKY/WX    TMP DP  RH WIND       PRES   REMARKS
DOWNTOWN L.A.  CLEAR     49  18  29 CALM      30.12R
L.A. AIRPORT   CLEAR     49  20  31 N8        30.12R
SAN DIEGO      PTCLDY    50  36  58 CALM      30.14F
BURBANK        CLEAR     44  15  31 N3        30.11R
ONTARIO        CLEAR     42  32  67 E5        30.10S
RIVERSIDE      CLEAR     41  35  79 NE3       30.11F
PALM SPRINGS   CLEAR     51  33  50 NW3       30.06R
EL CENTRO NAS  CLEAR     47  26  44 NW9       30.07S
IMPERIAL       CLEAR     47  30  51 W6        30.05R
BLYTHE         CLEAR     46  29  51 NW6       30.05S
NEEDLES        CLEAR     47  27  45 SW9       30.03S
$$

NVZ020-UTZ003-241100-
SOUTHERN NEVADA-UTAH

CITY           SKY/WX    TMP DP  RH WIND       PRES   REMARKS
LAS VEGAS      CLEAR     43  13  29 S6        30.02R
SALT LAKE CITY FLURRIES  27  23  85 CALM      29.94R
$$

NMZ009-TXZ055-241100-
NEW MEXICO-WEST TEXAS

CITY           SKY/WX    TMP DP  RH WIND       PRES   REMARKS
ALBUQUERQUE    PTCLDY    34  16  47 W6        29.85S WCI  29
EL PASO        CLEAR     52   5  15 W23G32    29.87S
$$


........................KEY........................
SKY/WX - SKY CONDITION/WEATHER
TMP    - TEMPERATURE IN FAHRENHEIT
DP     - DEW POINT IN FAHRENHEIT
RH     - RELATIVE HUMIDITY IN PERCENT
WIND   - DIRECTION AND SPEED IN MILES PER HOUR (MPH)
VRB    - VARIABLE WIND DIRECTION
PRES   - MEAN SEA LEVEL PRESSURE IN INCHES OF MERCURY
         F - FALLING PRESSURE   R - RISING PRESSURE
         S - STEADY PRESSURE
VSB    - VISIBILITY IN MILES
HX     - HEAT INDEX IN FAHRENHEIT
WCI    - WIND CHILL INDEX IN FAHRENHEIT
TC     - TEMPERATURE IN CELSIUS WHICH IS ALSO KNOWN AS
         TEMPERATURE IN CENTIGRADE
AFB    - AIR FORCE BASE
         LUKE AFB IS LUKE AIR FORCE BASE
         DAVIS-MONTHAN IS DAVIS-MONTHAN AIR FORCE BASE
NAS    - NAVAL AIR STATION
         EL CENTRO NAS IS EL CENTRO NAVAL AIR STATION
N/A    - NOT AVAILABLE




USA.gov is the U.S. government's official web portal to all federal, state and local government web resources and services.